Location: Newark
(45.9456°N, 15.4064°E)
Time: 13:07:27
(UTC+00:00)

Transit 2A - All Passes

Search period start: 17 January 2020 00:00
Search period end: 27 January 2020 00:00
Orbit: 601 x 957 km, 66.7° (Epoch: 17 January)

Date Brightness Start Highest point End Pass type
(mag) Time Alt. Az. Time Alt. Az. Time Alt. Az.
17 Jan - 04:16:49 10° NNW 04:20:40 25° NE 04:24:45 10° E visible
17 Jan - 05:59:27 10° NW 06:04:03 54° WSW 06:09:04 10° SSE visible
17 Jan - 20:42:07 10° SSW 20:46:32 71° ESE 20:50:52 10° NE night (unlit)
17 Jan - 22:27:07 10° W 22:30:09 18° NW 22:33:11 10° N night (unlit)
18 Jan - 03:43:00 10° N 03:46:19 19° NE 03:49:49 10° E visible
18 Jan - 05:25:16 10° NW 05:29:57 79° WSW 05:35:07 10° SSE visible
18 Jan - 07:11:23 10° W 07:12:27 11° WSW 07:13:32 10° WSW daylight
18 Jan - 20:08:13 10° S 20:12:28 46° ESE 20:16:38 10° NE night (unlit)
18 Jan - 21:52:12 10° W 21:55:48 24° NW 21:59:23 10° NNE night (unlit)
19 Jan - 03:09:18 10° N 03:11:56 15° NE 03:14:40 10° ENE visible
19 Jan - 04:51:09 10° NNW 04:55:50 73° NE 05:00:57 10° SE visible
19 Jan - 06:35:33 10° WNW 06:38:32 16° WSW 06:41:40 10° SW daylight
19 Jan - 19:34:33 10° S 19:38:27 30° ESE 19:42:16 10° NE night (unlit)
19 Jan - 21:17:31 10° WSW 21:21:30 33° NW 21:25:28 10° NNE night (unlit)
20 Jan - 02:35:53 10° N 02:37:29 12° NNE 02:39:06 10° NE visible
20 Jan - 04:17:06 10° NNW 04:21:40 51° NE 04:26:37 10° SE visible
20 Jan - 06:00:44 10° WNW 06:04:34 24° WSW 06:08:40 10° SSW visible
20 Jan - 19:01:13 10° SSE 19:04:29 20° ESE 19:07:41 10° ENE night (unlit)
20 Jan - 20:43:01 10° SW 20:47:17 47° NW 20:51:30 10° NNE night (unlit)
20 Jan - 22:31:09 10° NW 22:31:33 10° NNW 22:31:57 10° NNW night (unlit)
21 Jan - 03:43:07 10° NNW 03:47:26 36° NE 03:52:07 10° ESE visible
21 Jan - 05:26:15 10° NW 05:30:34 34° WSW 05:35:15 10° S visible
21 Jan - 18:28:27 10° SE 18:30:33 13° ESE 18:32:39 10° ENE night (unlit)
21 Jan - 20:08:42 10° SW 20:13:06 70° NW 20:17:28 10° NNE night (unlit)
21 Jan - 21:55:00 10° WNW 21:57:05 13° NNW 21:59:10 10° N night (unlit)
22 Jan - 03:09:11 10° NNW 03:13:10 27° NE 03:17:26 10° ESE visible
22 Jan - 04:51:55 10° NW 04:56:31 50° WSW 05:01:33 10° SSE visible
22 Jan - 19:34:33 10° SSW 19:38:59 78° ESE 19:43:20 10° NE night (unlit)
22 Jan - 21:19:46 10° W 21:22:39 17° NW 21:25:34 10° N night (unlit)
23 Jan - 02:35:21 10° N 02:38:51 21° NE 02:42:33 10° E visible
23 Jan - 04:17:42 10° NW 04:22:26 74° WSW 04:27:38 10° SSE visible
23 Jan - 19:00:38 10° SSW 19:04:54 50° ESE 19:09:07 10° NE visible
23 Jan - 20:44:49 10° W 20:48:17 23° NW 20:51:47 10° N night (unlit)
24 Jan - 02:01:36 10° N 02:04:28 16° NE 02:07:28 10° ENE visible
24 Jan - 03:43:34 10° NNW 03:48:18 78° NE 03:53:32 10° SE visible
24 Jan - 05:28:10 10° WNW 05:30:59 15° WSW 05:33:56 10° SW visible
24 Jan - 18:26:55 10° S 18:30:53 33° ESE 18:34:47 10° NE visible
24 Jan - 20:10:06 10° WSW 20:13:59 31° NW 20:17:53 10° NNE night (unlit)
25 Jan - 01:28:03 10° N 01:30:02 12° NNE 01:32:03 10° ENE visible
25 Jan - 03:09:30 10° NNW 03:14:09 55° NE 03:19:14 10° SE visible
25 Jan - 04:53:16 10° WNW 04:57:01 22° WSW 05:01:02 10° SSW visible
25 Jan - 17:53:30 10° SSE 17:56:54 22° ESE 18:00:15 10° ENE visible
25 Jan - 19:35:33 10° WSW 19:39:45 43° NW 19:43:56 10° NNE visible
26 Jan - 02:35:30 10° NNW 02:39:56 39° NE 02:44:45 10° ESE visible
26 Jan - 04:18:44 10° NW 04:23:02 32° WSW 04:27:41 10° S visible
26 Jan - 17:20:34 10° SE 17:22:58 14° ESE 17:25:21 10° ENE visible
26 Jan - 19:01:12 10° SW 19:05:33 64° NW 19:09:53 10° NNE visible
26 Jan - 20:47:44 10° WNW 20:49:36 12° NNW 20:51:30 10° N night (unlit)
